Geneva, Switzerland

8:05 PM CEST on June 22, 2017 (GMT +0200)
Cointrin

Weather History for LSGG - January, 2014

Change the Weather History Date:

Friday, January 31, 2014

  Actual Average Record
Temperature  
Mean Temperature 34 °F -  
Max Temperature 43 °F 42 °F 89 °F (1998)
Min Temperature 26 °F 30 °F 12 °F (2005)
Degree Days  
Heating Degree Days 30    
Moisture  
Dew Point 29 °F    
Average Humidity 83    
Maximum Humidity 100    
Minimum Humidity 45    
Precipitation  
Precipitation 0.00 in 0.10 in - ()
Sea Level Pressure  
Sea Level Pressure 29.80 in    
Wind  
Wind Speed 1 mph ()    
Max Wind Speed 5 mph    
Max Gust Speed -    
Visibility 4.1 miles    
Events Fog    
Averages and records for this station are not official NWS values.
T = Trace of Precipitation, MM = Missing Value Source: Averaged Metar Reports

Daily Weather History Graph

Daily Weather History Graph

Search for Another Location

Airport or City:

Trip Planner

Search our weather history database for the weather conditions in past years. The results will help you decide how hot, cold, wet, or windy it might be!

Date:

Astronomy

Jan. 31, 2014 Rise Set
Actual Time 7:59 AM CET 5:38 PM CET
Civil Twilight 7:27 AM CET 6:10 PM CET
Nautical Twilight 6:51 AM CET 6:46 PM CET
Astronomical Twilight 6:16 AM CET 7:21 PM CET
Moon 7:53 AM CET (1/31) 6:50 PM CET (1/31)
Length of Visible Light 10h 42m
Length of Day
9h 38m
New Moon, 0% of the Moon is Illuminated
Jan 31
New Moon
Feb 6
First Quarter
Feb 15
Full
Feb 22
Last Quarter
Mar 1
New

Hourly Weather History & Observations

Time (CET) Temp. Windchill Dew Point Humidity Pressure Visibility Wind Dir Wind Speed Gust Speed Precip Events Conditions
12:00 AM 32 °F - 31 °F 92% 29.75 in - ENE 3.5 mph - -  
12:20 AM 30.2 °F - 30.2 °F 100% 29.68 in 3.1 mi Variable 1.2 mph - N/A   Scattered Clouds
12:50 AM 30.2 °F - 30.2 °F 100% 29.68 in 2.2 mi NW 2.3 mph - N/A   Partly Cloudy
1:00 AM 31 °F - 29 °F 92% 29.75 in 2 mi WSW 1.2 mph - -   Mist
1:20 AM 30.2 °F - 30.2 °F 100% 29.68 in 1.9 mi Calm Calm - N/A Fog Fog
1:50 AM 30.2 °F - 30.2 °F 100% 29.68 in 1.9 mi Variable 1.2 mph - N/A Fog Fog
2:00 AM 28 °F - 27 °F 93% 29.77 in - NW 2.3 mph - -  
2:50 AM 30.2 °F - 30.2 °F 100% 29.68 in 1.9 mi Calm Calm - N/A Fog Fog
3:00 AM 28 °F - 26 °F 90% 29.78 in - WSW 1.2 mph - -  
3:20 AM 28.4 °F - 28.4 °F 100% 29.71 in 1.9 mi Calm Calm - N/A Fog Shallow Fog
3:50 AM 26.6 °F - 26.6 °F 100% 29.71 in 1.6 mi WNW 1.2 mph - N/A Fog Fog
4:00 AM 28 °F - 26 °F 89% 29.79 in 2 mi WNW 1.2 mph - -   Mist
4:20 AM 28.4 °F - 28.4 °F 100% 29.71 in 1.6 mi Calm Calm - N/A Fog Fog
4:50 AM 28.4 °F - 28.4 °F 100% 29.71 in 1.4 mi SW 2.3 mph - N/A Fog Fog
5:00 AM 28 °F - 26 °F 89% 29.80 in - West 2.3 mph - -  
5:20 AM 26.6 °F - 26.6 °F 100% 29.71 in 2.2 mi Calm Calm - N/A Fog Fog
5:50 AM 26.6 °F - 26.6 °F 100% 29.74 in 2.5 mi Calm Calm - N/A Fog Fog
6:00 AM 27 °F - 25 °F 90% 29.82 in - NW 1.2 mph - -  
6:20 AM 26.6 °F - 26.6 °F 100% 29.74 in 2.8 mi Calm Calm - N/A Fog Fog
6:50 AM 26.6 °F - 26.6 °F 100% 29.74 in 3.7 mi Calm Calm - N/A   Unknown
7:00 AM 28 °F - 26 °F 87% 29.84 in 5 mi North 2.3 mph - -   Mist
7:20 AM 28.4 °F - 28.4 °F 100% 29.74 in 3.7 mi Calm Calm - N/A   Unknown
7:50 AM 28.4 °F - 28.4 °F 100% 29.77 in 3.1 mi Calm Calm - N/A   Mist
8:00 AM 27 °F - 25 °F 91% 29.84 in - East 1.2 mph - -  
8:20 AM 26.6 °F - 26.6 °F 100% 29.77 in - Calm Calm - N/A   Mist
8:50 AM 26.6 °F - 26.6 °F 100% 29.77 in 3.7 mi Calm Calm - N/A   Unknown
9:00 AM 29 °F - 27 °F 87% 29.85 in - West 1.2 mph - -  
9:20 AM 28.4 °F - 28.4 °F 100% 29.77 in 3.7 mi Calm Calm - N/A   Unknown
9:50 AM 32.0 °F - 32.0 °F 100% 29.80 in 3.7 mi Variable 2.3 mph - N/A   Unknown
10:00 AM 33 °F - 30 °F 86% 29.86 in 4 mi NNE 2.3 mph - -   Mist
10:20 AM 33.8 °F 29.6 °F 32.0 °F 93% 29.80 in 3.7 mi WNW 4.6 mph - N/A   Scattered Clouds
10:50 AM 35.6 °F - 32.0 °F 87% 29.83 in 4.3 mi Calm Calm - N/A   Partly Cloudy
11:00 AM 36 °F - 30 °F 70% 29.88 in - SSE 2.3 mph - -  
11:20 AM 35.6 °F - 32.0 °F 87% 29.83 in 4.3 mi Calm Calm - N/A   Partly Cloudy
11:50 AM 39.2 °F - 32.0 °F 75% 29.83 in 4.3 mi Calm Calm - N/A   Scattered Clouds
12:00 PM 36 °F - 30 °F 71% 29.88 in - ENE 2.3 mph - -  
12:20 PM 39.2 °F - 32.0 °F 75% 29.83 in 4.3 mi Calm Calm - N/A   Partly Cloudy
12:50 PM 39.2 °F - 32.0 °F 75% 29.83 in 5.0 mi Calm Calm - N/A   Partly Cloudy
1:00 PM 39 °F - 30 °F 61% 29.87 in 5 mi NW 2.3 mph - -   Mist
1:20 PM 42.8 °F - 32.0 °F 66% 29.83 in 5.0 mi Calm Calm - N/A   Partly Cloudy
1:50 PM 41.0 °F - 30.2 °F 65% 29.83 in 5.6 mi Variable 1.2 mph - N/A   Partly Cloudy
2:00 PM 42 °F - 30 °F 51% 29.86 in - SSW 3.5 mph - -  
2:20 PM 42.8 °F - 32.0 °F 66% 29.80 in 5.6 mi Variable 2.3 mph - N/A   Partly Cloudy
2:50 PM 44.6 °F - 32.0 °F 61% 29.80 in 6.2 mi Calm Calm - N/A   Partly Cloudy
3:00 PM 43 °F - 29 °F 45% 29.85 in - SSW 4.6 mph - -  
3:20 PM 44.6 °F - 30.2 °F 57% 29.80 in 6.2 mi Variable 1.2 mph - N/A   Partly Cloudy
3:50 PM 44.6 °F - 30.2 °F 57% 29.80 in 6.2 mi Variable 1.2 mph - N/A   Partly Cloudy
4:00 PM 43 °F - 30 °F 48% 29.85 in 9 mi West 1.2 mph - -   Haze
4:20 PM 44.6 °F - 32.0 °F 61% 29.83 in 6.2 mi Calm Calm - N/A   Partly Cloudy
4:50 PM 44.6 °F - 30.2 °F 57% 29.83 in 6.2 mi Calm Calm - N/A   Partly Cloudy
5:00 PM 42 °F - 29 °F 47% 29.86 in - West 2.3 mph - -  
5:20 PM 42.8 °F - 30.2 °F 61% 29.83 in - Calm Calm - N/A   Clear
5:50 PM 39.2 °F - 30.2 °F 70% 29.83 in - Calm Calm - N/A   Clear
6:00 PM 39 °F - 30 °F 59% 29.87 in - Calm Calm - -  
6:20 PM 37.4 °F - 30.2 °F 75% 29.83 in - Calm Calm - N/A   Clear
6:50 PM 35.6 °F - 30.2 °F 81% 29.83 in - Calm Calm - N/A   Clear
7:00 PM 36 °F - 29 °F 67% 29.88 in 11 mi NNW 2.3 mph - -   Clear
7:20 PM 37.4 °F - 32.0 °F 81% 29.83 in - Calm Calm - N/A   Clear
7:50 PM 35.6 °F - 30.2 °F 81% 29.83 in - Calm Calm - N/A   Clear
8:00 PM 33 °F - 29 °F 79% 29.91 in - NW 1.2 mph - -  
8:20 PM 33.8 °F - 32.0 °F 93% 29.83 in - Calm Calm - N/A   Clear
8:50 PM 32.0 °F - 30.2 °F 93% 29.83 in - Calm Calm - N/A   Clear
9:00 PM 32 °F - 29 °F 84% 29.91 in - NW 2.3 mph - -  
9:20 PM 33.8 °F - 30.2 °F 87% 29.86 in - Calm Calm - N/A   Clear
9:50 PM 32.0 °F - 30.2 °F 93% 29.83 in - Calm Calm - N/A   Clear
10:00 PM 31 °F - 29 °F 87% 29.91 in 8 mi NW 3.5 mph - -   Mist
10:20 PM 32.0 °F - 30.2 °F 93% 29.83 in - Calm Calm - N/A   Clear
10:50 PM 30.2 °F - 30.2 °F 100% 29.83 in - Calm Calm - N/A   Clear
11:00 PM 31 °F - 28 °F 86% 29.89 in - WSW 1.2 mph - -  
11:20 PM 30.2 °F - 28.4 °F 93% 29.80 in - Calm Calm - N/A   Clear
11:50 PM 28.4 °F 24.6 °F 28.4 °F 100% 29.80 in - WNW 3.5 mph - N/A   Clear